Flag for Australia Weather past 2 weeks in Perth, Western Australia, Australia

84 °F


Feels Like: 82 °F
Forecast: 65 / 81 °F
Wind: 15 mph from Southwest

Location: Belmont Perth Airport

Current Time: Nov 27, 2015 at 5:07:31 PM

Latest Report: Nov 27, 2015 at 4:00 PM

Visibility: 10 mi

Pressure: 29.80 "Hg

Humidity: 33%

Dew point: 52 °F

Location of PerthLocation

Historic Weather in Perth — Graph


Perth temperature yesterday

Maximum temperature yesterday: 88 °F (at 3:30 PM)
Minimum temperature yesterday: 57 °F (at 5:00 AM)
Average temperature yesterday: 71 °F

Past Weeks' High & Low Weather Summary

High102 °F (Nov 14, 12:00 PM)94% (Nov 15, 3:30 AM)30.30 "Hg (Nov 15, 3:30 AM)
Low48 °F (Nov 19, 5:00 AM)8% (Nov 21, 4:30 PM)29.65 "Hg (Nov 17, 4:30 AM)
Average73 °F49%29.96 "Hg
* Reported Nov 12 4:00 PM — Nov 27 4:00 PM, Perth, Weather by CustomWeather, © 2015

Note: Actual official high and low records may vary slightly from our data, if they occured in-between our weather recording intervals... More about our weather records


Perth weather history for previous 24 hours

Time TempWeatherWind HumidityBarometerVisibility
4:00 PM
Fri, Nov 27
84 °FSunny.15 mph33%29.80 "Hg10 mi
3:30 PM84 °FSunny.14 mph35%29.80 "Hg10 mi
3:00 PM84 °FSunny.14 mph35%29.80 "Hg10 mi
2:00 PM84 °FSunny.15 mph33%29.83 "Hg10 mi
1:00 PM86 °FSunny.15 mph31%29.83 "Hg10 mi
12:00 PM88 °FSunny.12 mph27%29.83 "Hg10 mi
11:00 AM86 °FSunny.6 mph29%29.86 "Hg10 mi
10:30 AM84 °FSunny.6 mph31%29.86 "Hg10 mi
10:00 AM82 °FSunny.6 mph32%29.86 "Hg10 mi
9:30 AM81 °FSunny.5 mph34%29.89 "Hg10 mi
9:00 AM79 °FSunny.7 mph37%29.89 "Hg10 mi
8:30 AM75 °FSunny.7 mph41%29.89 "Hg10 mi
8:00 AM72 °FSunny.10 mph44%29.89 "Hg10 mi
7:30 AM70 °FSunny.12 mph46%29.89 "Hg10 mi
7:00 AM68 °FSunny.7 mph49%29.89 "Hg10 mi
6:30 AM66 °FSunny.9 mph52%29.89 "Hg10 mi
6:00 AM64 °FSunny.12 mph56%29.89 "Hg10 mi
5:30 AM64 °FSunny.8 mph52%29.86 "Hg10 mi
5:00 AM64 °FSunny.7 mph52%29.86 "Hg10 mi
4:30 AM64 °FSunny.12 mph56%29.86 "Hg10 mi
4:00 AM64 °FClear.10 mph56%29.83 "Hg10 mi
3:30 AM64 °FClear.6 mph56%29.83 "Hg10 mi
3:00 AM66 °FClear.8 mph52%29.83 "Hg10 mi
2:30 AM66 °FClear.12 mph52%29.83 "Hg10 mi
2:00 AM68 °FClear.12 mph49%29.86 "Hg10 mi
1:30 AM70 °FClear.9 mph46%29.86 "Hg10 mi
1:00 AM70 °FClear.9 mph43%29.86 "Hg10 mi
12:30 AM72 °FClear.12 mph41%29.83 "Hg10 mi
12:00 AM70 °FClear.8 mph43%29.86 "Hg10 mi
11:30 PM
Thu, Nov 26
66 °FClear.9 mph64%29.86 "Hg10 mi
11:00 PM66 °FClear.5 mph68%29.86 "Hg10 mi
10:30 PM68 °FClear.8 mph64%29.89 "Hg10 mi
10:00 PM70 °FClear.10 mph57%29.89 "Hg10 mi
9:30 PM72 °FClear.13 mph57%29.89 "Hg10 mi
9:00 PM72 °FClear.13 mph57%29.89 "Hg10 mi
8:30 PM73 °FClear.13 mph53%29.86 "Hg10 mi
8:00 PM73 °FClear.12 mph53%29.86 "Hg10 mi
7:00 PM77 °FClear.14 mph42%29.86 "Hg10 mi
6:30 PM79 °FClear.16 mph39%29.86 "Hg10 mi
6:00 PM81 °FSunny.15 mph34%29.86 "Hg10 mi
5:30 PM81 °FSunny.16 mph39%29.86 "Hg10 mi
5:00 PM82 °FSunny.17 mph37%29.86 "Hg10 mi
Weather by CustomWeather, © 2015

See weather overviewHow to use our weather pages